Time,TemperatureF,DewpointF,PressureIn,WindDirection,WindDirectionDegrees,WindSpeedMPH,WindSpeedGustMPH,Humidity,HourlyPrecipIn,Conditions,Clouds,dailyrainin,SoftwareType,DateUTC
2013-02-28 00:02:00,38.0,38.0,-100.00,South,180,4.0,12.0,99,0.00,,,-99.99,,2013-02-28 05:02:00,
2013-02-28 00:11:00,38.0,38.0,-100.00,SW,220,4.0,11.0,99,0.00,,,-99.99,,2013-02-28 05:11:00,
2013-02-28 00:22:00,38.0,38.0,-100.00,SSW,195,3.0,11.0,99,0.00,,,-99.99,,2013-02-28 05:22:00,
2013-02-28 00:32:00,38.0,38.0,-100.00,SSW,205,4.0,8.0,99,0.00,,,-99.99,,2013-02-28 05:32:00,
2013-02-28 00:42:00,38.0,38.0,-100.00,SW,215,6.0,7.0,99,0.00,,,-99.99,,2013-02-28 05:42:00,
2013-02-28 00:52:00,38.0,38.0,-100.00,SSW,205,4.0,9.0,99,0.00,,,-99.99,,2013-02-28 05:52:00,
2013-02-28 01:02:00,38.0,38.0,-100.00,SW,215,4.0,9.0,99,0.00,,,-99.99,,2013-02-28 06:02:00,
2013-02-28 01:11:00,38.0,38.0,-100.00,SSW,205,5.0,10.0,99,0.00,,,-99.99,,2013-02-28 06:11:00,
2013-02-28 01:22:00,38.0,38.0,-100.00,SW,220,6.0,9.0,99,0.00,,,-99.99,,2013-02-28 06:22:00,
2013-02-28 01:32:00,38.0,38.0,-100.00,SSW,205,6.0,12.0,99,0.00,,,-99.99,,2013-02-28 06:32:00,
2013-02-28 01:42:00,38.0,38.0,-100.00,SW,215,3.0,11.0,99,0.00,,,-99.99,,2013-02-28 06:42:00,
2013-02-28 01:52:00,38.0,38.0,-100.00,WSW,250,5.0,7.0,99,0.00,,,-99.99,,2013-02-28 06:52:00,
2013-02-28 02:01:00,38.0,38.0,-100.00,SW,215,5.0,10.0,99,0.00,,,-99.99,,2013-02-28 07:01:00,
2013-02-28 03:22:00,38.0,36.0,-100.00,SSW,205,6.0,12.0,92,0.00,,,-99.99,,2013-02-28 08:22:00,
2013-02-28 03:32:00,38.0,35.0,-100.00,SW,225,6.0,13.0,91,0.00,,,-99.99,,2013-02-28 08:32:00,
2013-02-28 03:42:00,38.0,36.0,-100.00,SW,225,6.0,9.0,91,0.00,,,-99.99,,2013-02-28 08:42:00,
2013-02-28 03:53:00,38.0,36.0,-100.00,SSW,200,6.0,11.0,91,0.00,,,-99.99,,2013-02-28 08:53:00,
2013-02-28 04:03:00,38.0,36.0,-100.00,SSW,205,6.0,9.0,92,0.00,,,-99.99,,2013-02-28 09:03:00,
2013-02-28 04:11:00,38.0,36.0,-100.00,SSW,200,5.0,12.0,92,0.00,,,-99.99,,2013-02-28 09:11:00,
2013-02-28 04:22:00,38.0,36.0,-100.00,SW,225,7.0,12.0,92,0.00,,,-99.99,,2013-02-28 09:22:00,
2013-02-28 04:32:00,38.0,36.0,-100.00,SSW,210,4.0,12.0,91,0.00,,,-99.99,,2013-02-28 09:32:00,
2013-02-28 04:42:00,38.0,36.0,-100.00,SSW,210,3.0,10.0,92,0.00,,,-99.99,,2013-02-28 09:42:00,
2013-02-28 04:52:00,38.0,36.0,-100.00,SW,215,6.0,10.0,92,0.00,,,-99.99,,2013-02-28 09:52:00,
2013-02-28 05:02:00,38.0,36.0,-100.00,SW,215,7.0,14.0,92,0.00,,,-99.99,,2013-02-28 10:02:00,
2013-02-28 05:11:00,38.0,36.0,-100.00,SW,215,7.0,12.0,92,0.00,,,-99.99,,2013-02-28 10:11:00,
2013-02-28 05:22:00,37.0,36.0,-100.00,SW,220,4.0,11.0,93,0.00,,,-99.99,,2013-02-28 10:22:00,
2013-02-28 05:32:00,38.0,36.0,-100.00,SW,220,6.0,14.0,93,0.00,,,-99.99,,2013-02-28 10:32:00,
2013-02-28 05:52:00,38.0,36.0,-100.00,SW,220,7.0,14.0,92,0.00,,,-99.99,,2013-02-28 10:52:00,
2013-02-28 06:02:00,37.0,36.0,-100.00,SSW,200,6.0,11.0,92,0.00,,,-99.99,,2013-02-28 11:02:00,
2013-02-28 06:11:00,37.0,36.0,-100.00,SW,215,4.0,9.0,93,0.00,,,-99.99,,2013-02-28 11:11:00,
2013-02-28 06:22:00,37.0,36.0,-100.00,SW,220,4.0,11.0,94,0.00,,,-99.99,,2013-02-28 11:22:00,
2013-02-28 06:32:00,37.0,36.0,-100.00,SSW,200,6.0,9.0,94,0.00,,,-99.99,,2013-02-28 11:32:00,
2013-02-28 06:42:00,38.0,36.0,-100.00,SW,230,4.0,12.0,95,0.00,,,-99.99,,2013-02-28 11:42:00,
2013-02-28 06:52:00,37.0,36.0,-100.00,SW,215,3.0,9.0,95,0.00,,,-99.99,,2013-02-28 11:52:00,
2013-02-28 07:02:00,37.0,36.0,-100.00,SW,215,5.0,9.0,96,0.00,,,-99.99,,2013-02-28 12:02:00,
2013-02-28 07:11:00,37.0,37.0,-100.00,SSW,210,3.0,9.0,96,0.00,,,-99.99,,2013-02-28 12:11:00,
2013-02-28 07:22:00,37.0,36.0,-100.00,SSW,210,4.0,7.0,97,0.00,,,-99.99,,2013-02-28 12:22:00,
2013-02-28 07:32:00,37.0,37.0,-100.00,SSW,210,4.0,7.0,97,0.00,,,-99.99,,2013-02-28 12:32:00,
2013-02-28 07:42:00,37.0,37.0,-100.00,SSW,210,6.0,11.0,98,0.00,,,-99.99,,2013-02-28 12:42:00,
2013-02-28 07:52:00,37.0,37.0,-100.00,SW,220,4.0,12.0,98,0.00,,,-99.99,,2013-02-28 12:52:00,
2013-02-28 08:02:00,37.0,37.0,-100.00,SW,215,4.0,11.0,98,0.00,,,-99.99,,2013-02-28 13:02:00,
2013-02-28 08:11:00,37.0,37.0,-100.00,SW,215,4.0,11.0,98,0.00,,,-99.99,,2013-02-28 13:11:00,
2013-02-28 08:22:00,37.0,37.0,-100.00,SSW,210,4.0,7.0,99,0.00,,,-99.99,,2013-02-28 13:22:00,
2013-02-28 08:32:00,37.0,37.0,-100.00,SW,215,4.0,8.0,99,0.55,,,-99.99,,2013-02-28 13:32:00,
2013-02-28 08:42:00,37.0,37.0,-100.00,South,190,2.0,7.0,99,0.55,,,-99.99,,2013-02-28 13:42:00,
2013-02-28 08:52:00,37.0,37.0,-100.00,SW,220,3.0,7.0,99,0.00,,,-99.99,,2013-02-28 13:52:00,
2013-02-28 09:02:00,37.0,37.0,-100.00,SSW,195,3.0,6.0,99,0.55,,,-99.99,,2013-02-28 14:02:00,
2013-02-28 09:11:00,37.0,37.0,-100.00,SW,215,4.0,6.0,99,0.00,,,-99.99,,2013-02-28 14:11:00,
2013-02-28 09:22:00,37.0,37.0,-100.00,SSW,195,4.0,7.0,99,0.55,,,-99.99,,2013-02-28 14:22:00,
2013-02-28 09:32:00,38.0,37.0,-100.00,SSW,210,5.0,7.0,99,0.55,,,-99.99,,2013-02-28 14:32:00,
2013-02-28 09:42:00,38.0,38.0,-100.00,SSW,205,3.0,7.0,99,0.55,,,-99.99,,2013-02-28 14:42:00,
2013-02-28 09:52:00,38.0,38.0,-100.00,SW,215,4.0,7.0,99,0.55,,,-99.99,,2013-02-28 14:52:00,
2013-02-28 10:02:00,38.0,38.0,-100.00,SSW,200,4.0,9.0,99,0.00,,,-99.99,,2013-02-28 15:02:00,
2013-02-28 10:11:00,38.0,38.0,-100.00,SSW,205,5.0,7.0,99,0.00,,,-99.99,,2013-02-28 15:11:00,
2013-02-28 10:22:00,38.0,38.0,-100.00,SW,220,6.0,11.0,99,0.00,,,-99.99,,2013-02-28 15:22:00,
2013-02-28 10:32:00,38.0,38.0,-100.00,SW,215,6.0,11.0,99,0.00,,,-99.99,,2013-02-28 15:32:00,
2013-02-28 10:42:00,38.0,38.0,-100.00,SW,235,4.0,9.0,99,0.00,,,-99.99,,2013-02-28 15:42:00,
2013-02-28 10:52:00,39.0,38.0,-100.00,SSW,205,4.0,9.0,99,0.00,,,-99.99,,2013-02-28 15:52:00,
2013-02-28 11:02:00,39.0,39.0,-100.00,WSW,240,4.0,9.0,99,0.00,,,-99.99,,2013-02-28 16:02:00,
2013-02-28 11:12:00,38.0,38.0,-100.00,SW,230,6.0,14.0,99,0.00,,,-99.99,,2013-02-28 16:12:00,
2013-02-28 11:22:00,38.0,38.0,-100.00,West,260,6.0,12.0,99,0.00,,,-99.99,,2013-02-28 16:22:00,
2013-02-28 11:32:00,39.0,38.0,-100.00,WSW,255,6.0,14.0,99,0.00,,,-99.99,,2013-02-28 16:32:00,
2013-02-28 11:42:00,38.0,38.0,-100.00,WSW,250,8.0,17.0,99,0.00,,,-99.99,,2013-02-28 16:42:00,
2013-02-28 11:52:00,38.0,38.0,-100.00,WSW,255,10.0,13.0,99,0.00,,,-99.99,,2013-02-28 16:52:00,
2013-02-28 12:02:00,38.0,38.0,-100.00,West,260,7.0,12.0,99,0.00,,,-99.99,,2013-02-28 17:02:00,
2013-02-28 12:12:00,38.0,38.0,-100.00,SW,220,6.0,12.0,99,0.00,,,-99.99,,2013-02-28 17:12:00,
2013-02-28 12:22:00,38.0,38.0,-100.00,West,260,5.0,11.0,99,0.00,,,-99.99,,2013-02-28 17:22:00,
2013-02-28 12:32:00,38.0,38.0,-100.00,West,260,7.0,11.0,99,0.00,,,-99.99,,2013-02-28 17:32:00,
2013-02-28 12:42:00,38.0,38.0,-100.00,WNW,295,5.0,9.0,99,0.55,,,-99.99,,2013-02-28 17:42:00,
2013-02-28 12:52:00,38.0,38.0,-100.00,West,270,6.0,12.0,99,0.00,,,-99.99,,2013-02-28 17:52:00,
2013-02-28 13:02:00,38.0,38.0,-100.00,NW,305,3.0,11.0,99,0.00,,,-99.99,,2013-02-28 18:02:00,
2013-02-28 13:11:00,38.0,38.0,-100.00,WNW,285,6.0,12.0,99,0.00,,,-99.99,,2013-02-28 18:11:00,
2013-02-28 13:22:00,38.0,38.0,-100.00,West,280,5.0,10.0,99,0.00,,,-99.99,,2013-02-28 18:22:00,
2013-02-28 13:32:00,38.0,37.0,-100.00,NW,315,7.0,13.0,99,0.00,,,-99.99,,2013-02-28 18:32:00,
2013-02-28 13:42:00,38.0,38.0,-100.00,NW,320,6.0,12.0,99,0.00,,,-99.99,,2013-02-28 18:42:00,
2013-02-28 13:52:00,38.0,38.0,-100.00,NW,320,6.0,12.0,99,0.00,,,-99.99,,2013-02-28 18:52:00,
2013-02-28 14:02:00,38.0,37.0,-100.00,WNW,300,4.0,12.0,99,0.00,,,-99.99,,2013-02-28 19:02:00,
2013-02-28 14:11:00,38.0,38.0,-100.00,NW,315,5.0,10.0,99,0.00,,,-99.99,,2013-02-28 19:11:00,
2013-02-28 14:22:00,38.0,38.0,-100.00,NW,305,3.0,13.0,99,0.00,,,-99.99,,2013-02-28 19:22:00,
2013-02-28 14:32:00,38.0,38.0,-100.00,West,275,6.0,11.0,99,0.00,,,-99.99,,2013-02-28 19:32:00,
2013-02-28 14:42:00,38.0,38.0,-100.00,NW,315,5.0,9.0,99,0.00,,,-99.99,,2013-02-28 19:42:00,
2013-02-28 14:52:00,38.0,38.0,-100.00,NW,325,6.0,11.0,99,0.00,,,-99.99,,2013-02-28 19:52:00,
2013-02-28 15:01:00,38.0,38.0,-100.00,NW,315,7.0,13.0,99,0.00,,,-99.99,,2013-02-28 20:01:00,
2013-02-28 15:12:00,38.0,38.0,-100.00,NW,320,6.0,13.0,99,0.00,,,-99.99,,2013-02-28 20:12:00,
2013-02-28 15:22:00,39.0,38.0,-100.00,NW,310,5.0,9.0,99,0.00,,,-99.99,,2013-02-28 20:22:00,
2013-02-28 15:32:00,38.0,38.0,-100.00,WNW,290,7.0,12.0,99,0.00,,,-99.99,,2013-02-28 20:32:00,
2013-02-28 15:42:00,39.0,39.0,-100.00,NW,320,4.0,12.0,99,0.00,,,-99.99,,2013-02-28 20:42:00,
2013-02-28 15:52:00,38.0,38.0,-100.00,NW,305,6.0,12.0,99,0.00,,,-99.99,,2013-02-28 20:52:00,
2013-02-28 16:02:00,38.0,38.0,-100.00,NW,315,4.0,11.0,99,0.00,,,-99.99,,2013-02-28 21:02:00,
2013-02-28 16:11:00,38.0,38.0,-100.00,West,280,5.0,11.0,99,0.00,,,-99.99,,2013-02-28 21:11:00,
2013-02-28 16:22:00,38.0,38.0,-100.00,WNW,300,6.0,12.0,99,0.00,,,-99.99,,2013-02-28 21:22:00,
2013-02-28 16:32:00,38.0,38.0,-100.00,West,280,5.0,12.0,99,0.00,,,-99.99,,2013-02-28 21:32:00,
2013-02-28 16:42:00,38.0,38.0,-100.00,NW,315,6.0,13.0,99,0.00,,,-99.99,,2013-02-28 21:42:00,
2013-02-28 16:52:00,38.0,38.0,-100.00,NW,320,4.0,12.0,99,0.00,,,-99.99,,2013-02-28 21:52:00,
2013-02-28 17:01:00,38.0,38.0,-100.00,NW,325,7.0,12.0,99,0.00,,,-99.99,,2013-02-28 22:01:00,
2013-02-28 17:11:00,38.0,38.0,-100.00,NW,310,5.0,12.0,99,0.00,,,-99.99,,2013-02-28 22:11:00,
2013-02-28 17:22:00,38.0,38.0,-100.00,NNW,330,7.0,16.0,99,0.00,,,-99.99,,2013-02-28 22:22:00,
2013-02-28 17:32:00,38.0,38.0,-100.00,NNW,335,7.0,17.0,99,0.00,,,-99.99,,2013-02-28 22:32:00,
2013-02-28 17:42:00,38.0,38.0,-100.00,NW,315,5.0,16.0,99,0.00,,,-99.99,,2013-02-28 22:42:00,
2013-02-28 17:52:00,38.0,38.0,-100.00,NW,315,5.0,16.0,99,0.00,,,-99.99,,2013-02-28 22:52:00,
2013-02-28 18:01:00,38.0,37.0,-100.00,NNW,335,8.0,16.0,99,0.00,,,-99.99,,2013-02-28 23:01:00,
2013-02-28 18:11:00,37.0,37.0,-100.00,NW,305,7.0,16.0,99,0.00,,,-99.99,,2013-02-28 23:11:00,
2013-02-28 18:22:00,37.0,37.0,-100.00,NW,310,9.0,14.0,99,0.00,,,-99.99,,2013-02-28 23:22:00,
2013-02-28 18:32:00,37.0,37.0,-100.00,NW,315,6.0,14.0,99,0.00,,,-99.99,,2013-02-28 23:32:00,
2013-02-28 18:42:00,37.0,37.0,-100.00,NW,310,10.0,15.0,99,0.00,,,-99.99,,2013-02-28 23:42:00,
2013-02-28 18:52:00,37.0,37.0,-100.00,NNW,330,9.0,17.0,99,0.00,,,-99.99,,2013-02-28 23:52:00,
2013-02-28 19:02:00,37.0,37.0,-100.00,NNW,335,7.0,15.0,99,0.00,,,-99.99,,2013-03-01 00:02:00,
2013-02-28 19:11:00,37.0,37.0,-100.00,NW,320,5.0,14.0,99,0.00,,,-99.99,,2013-03-01 00:11:00,
2013-02-28 19:22:00,37.0,37.0,-100.00,NNW,335,7.0,16.0,99,0.00,,,-99.99,,2013-03-01 00:22:00,
2013-02-28 19:32:00,37.0,37.0,-100.00,North,350,9.0,15.0,99,0.00,,,-99.99,,2013-03-01 00:32:00,
2013-02-28 19:42:00,37.0,37.0,-100.00,NW,310,6.0,16.0,99,0.00,,,-99.99,,2013-03-01 00:42:00,
2013-02-28 19:51:00,37.0,37.0,-100.00,NNW,330,6.0,12.0,99,0.00,,,-99.99,,2013-03-01 00:51:00,
2013-02-28 20:01:00,37.0,36.0,-100.00,NW,320,6.0,14.0,99,0.00,,,-99.99,,2013-03-01 01:01:00,
2013-02-28 20:11:00,36.0,36.0,-100.00,NNW,330,11.0,17.0,99,0.00,,,-99.99,,2013-03-01 01:11:00,
2013-02-28 20:21:00,36.0,36.0,-100.00,NNW,330,11.0,17.0,99,0.00,,,-99.99,,2013-03-01 01:21:00,
2013-02-28 20:32:00,37.0,36.0,-100.00,NW,315,6.0,15.0,99,0.00,,,-99.99,,2013-03-01 01:32:00,
2013-02-28 20:42:00,36.0,36.0,-100.00,NW,325,9.0,16.0,99,0.00,,,-99.99,,2013-03-01 01:42:00,
2013-02-28 20:51:00,36.0,36.0,-100.00,WNW,300,6.0,14.0,99,0.00,,,-99.99,,2013-03-01 01:51:00,
2013-02-28 21:01:00,36.0,36.0,-100.00,NNW,340,8.0,15.0,98,0.00,,,-99.99,,2013-03-01 02:01:00,
2013-02-28 21:11:00,36.0,36.0,-100.00,NNW,340,8.0,15.0,98,0.00,,,-99.99,,2013-03-01 02:11:00,
2013-02-28 21:21:00,36.0,36.0,-100.00,WNW,300,6.0,13.0,98,0.00,,,-99.99,,2013-03-01 02:21:00,
2013-02-28 21:32:00,36.0,36.0,-100.00,NW,315,4.0,13.0,98,0.00,,,-99.99,,2013-03-01 02:32:00,
2013-02-28 21:42:00,36.0,35.0,-100.00,NW,325,9.0,14.0,97,0.00,,,-99.99,,2013-03-01 02:42:00,
2013-02-28 21:52:00,36.0,35.0,-100.00,NNW,345,2.0,15.0,97,0.00,,,-99.99,,2013-03-01 02:52:00,
2013-02-28 22:02:00,36.0,35.0,-100.00,WNW,285,9.0,16.0,97,0.00,,,-99.99,,2013-03-01 03:02:00,
2013-02-28 22:11:00,36.0,35.0,-100.00,WNW,295,6.0,16.0,97,0.00,,,-99.99,,2013-03-01 03:11:00,
2013-02-28 22:21:00,36.0,35.0,-100.00,NW,320,6.0,15.0,97,0.00,,,-99.99,,2013-03-01 03:21:00,
2013-02-28 22:32:00,36.0,35.0,-100.00,WNW,300,7.0,14.0,98,0.00,,,-99.99,,2013-03-01 03:32:00,
2013-02-28 22:42:00,35.0,35.0,-100.00,WNW,295,6.0,18.0,99,0.00,,,-99.99,,2013-03-01 03:42:00,
2013-02-28 22:51:00,35.0,35.0,-100.00,NNW,345,9.0,15.0,99,0.00,,,-99.99,,2013-03-01 03:51:00,
2013-02-28 23:01:00,35.0,35.0,-100.00,NW,320,9.0,15.0,99,0.00,,,-99.99,,2013-03-01 04:01:00,
2013-02-28 23:11:00,35.0,35.0,-100.00,NW,310,9.0,16.0,99,0.00,,,-99.99,,2013-03-01 04:11:00,
2013-02-28 23:21:00,35.0,35.0,-100.00,NNW,330,6.0,14.0,99,0.00,,,-99.99,,2013-03-01 04:21:00,
2013-02-28 23:32:00,35.0,35.0,-100.00,NW,305,7.0,17.0,99,0.00,,,-99.99,,2013-03-01 04:32:00,
2013-02-28 23:42:00,35.0,35.0,-100.00,NW,305,10.0,16.0,99,0.00,,,-99.99,,2013-03-01 04:42:00,
2013-02-28 23:52:00,35.0,35.0,-100.00,NNW,330,6.0,15.0,99,0.00,,,-99.99,,2013-03-01 04:52:00,